Observer details:
104 San Marcello Pistoiese.  Observers P. Bacci, M. Maestripieri.  Measurers
    P. Bacci, L. Tesi, G. Fagioli.  0.60-m reflector + CCD.
160 Castelmartini.  Observers M. Jaeger, E. Prosperi, S. Prosperi,
    W. Vollmann.  Measurer E. Prosperi.  0.35-m f/10 Schmidt-Cassegrain + CCD.
203 GiaGa Observatory.  Observers S. Foglia, G. Galli.  Measurer G. Galli.
    0.36-m f/7.50 Schmidt-Cassegrain + CCD.
204 Schiaparelli Observatory.  Observer L. Buzzi.  0.84-m f/3.5 reflector +
    CCD.
587 Sormano.  Observers A. Fumagalli, F. Manca, P. Sicoli, A. Testa.
    Measurer P. Sicoli.  0.5-m f/6.8 reflector + CCD.
595 Farra dIsonzo.  Observers U. Montanar, E. Pettarin, F. Piani.
    Measurers U. Montanar, E. Pettarin.  0.61-m f/4.5 reflector + CCD.
B49 Paus Observatory, Sabadell.  Observer J. Camarasa.  0.30-m f/4 Newtonian
    reflector + CCD.
C77 Bernezzo Observatory.  Observer A. Mantero.  0.25-m f/4.0 reflector + CCD.
J08 Observatorio Zonalunar, Puzol.  Observer A. Carreno.  Measurer
    J. Piqueras.  0.20-m f/5 Newtonian reflector + CCD.
K38 M57 Observatory, Saltrio.  Observer G. Baj.  0.3-m f/5.5 Ritchey-Chretien
    + CCD.
K51 Osservatorio del Celado, Castello Tesino.  Observers G. Favero,
    R. Furgoni.  Measurer R. Furgoni.  0.80-m f/4 reflector + CCD.
K63 G. Pascoli Observatory, Castelvecchio Pascoli.  Observer R. Bacci.
    0.41-m f/3.2 Newtonian reflector + CCD.
L01 Visnjan Observatory, Tican.  Observer K. Korlevic.  1.0-m f/2.9 reflector
    + CCD.
L04 ROASTERR-1 Observatory, Cluj-Napoca.  Observer L. Hudin.  0.3-m f/5
    reflector + CCD.
P93 Space Tracking and Communications Center, JAXA.  Observers S. Urakawa,
    T. Fujiwara.  1.0-m f/3.0 reflector + CCD.
T05 ATLAS-HKO, Haleakala.  Observers L. Denneau, J. Tonry, A. Heinze,
    H. Weiland.  Measurers L. Denneau, J. Tonry, A. Heinze, H. Weiland,
    B. Stalder.  0.5-m reflector + CCD.
T08 ATLAS-MLO, Mauna Loa.  Observers L. Denneau, J. Tonry, A. Heinze,
    H. Weiland.  Measurers L. Denneau, J. Tonry, A. Heinze, H. Weiland,
    B. Stalder.  0.5-m reflector + CCD.
W34 Squirrel Valley Observatory, Columbus.  Observer R. L. Flynn.  0.2-m
    f/7.0 Schmidt-Cassegrain + CCD.
Z99 Clixby Observatory, Cleethorpes.  Observer A. Mickleburgh.  0.36-m f/8
    Schmidt-Cassegrain + CCD.
 
Orbital elements:
2019 AD5                                                 Earth MOID = 0.0250 AU
Epoch 2019 Apr. 27.0 TT = JDT 2458600.5                 MPC
M  34.71393              (2000.0)            P               Q
n   0.23652152     Peri.  306.63192     +0.58374096     -0.80135101
a   2.5895379      Node   107.14377     +0.78176333     +0.51123720
e   0.6585078      Incl.    7.86154     +0.21930022     +0.31060118
P   4.17           H   22.9           G   0.15           U   7
Residuals in seconds of arc
190105 T08  0.5-  0.8-    190106 T08  0.3-  0.4-    190106 160  0.0   0.3+
190105 T08  0.3+  0.1-    190106 T08  0.3+  0.5-    190106 K63  0.7+  0.1+
190105 T08  0.3+  0.1+    190106 T08  0.1+  0.1+    190106 K63  0.3-  0.1-
190105 T08  0.1-  0.0     190106 T08  0.3-  0.0     190106 K63  0.1+  0.1-
190105 L01  0.1-  0.0     190106 T08  0.3+  0.3-    190106 204  0.1-  0.1+
190105 L01  0.2-  0.0     190106 T08  1.5-  1.4-    190107 204  0.2-  0.2-
190105 L01  0.1-  0.1-    190106 T05  0.8+  0.4+    190107 204  0.3-  0.2-
190105 L01  0.2-  0.0     190106 T08  0.5-  0.2-    190107 204  0.0   0.1-
190105 L01  0.1-  0.1-    190106 T05  0.7+  0.4+    190107 204  0.2-  0.2-
190105 104  0.3-  0.1+    190106 T08  0.7+  0.6+    190107 W34  0.4+  0.1-
190105 104  0.1+  0.1+    190106 T05  0.6+  0.3-    190107 W34  0.2-  0.3-
190105 104  0.4-  0.2+    190106 T05  0.6+  0.1-    190107 W34  0.3+  0.4+
190105 104  0.2-  0.2-    190106 T05  1.2-  0.0     190107 L04  0.2-  0.1-
190105 595  0.7+  0.2-    190106 T05  0.2-  0.4-    190107 B49  0.3+  0.6-
190105 595  0.2-  0.3+    190106 P93  0.5+  0.0     190107 B49  0.1+  0.3-
190105 595  0.1-  0.4+    190106 P93  0.0   0.1+    190107 L04  0.1+  0.2+
190105 595  0.1+  0.1+    190106 P93  0.6-  0.1+    190107 B49  0.2+  0.2-
190105 C77  0.3+  0.3+    190106 P93  0.1-  0.7-    190107 L04  0.4-  0.2+
190105 C77  1.0+  1.1+    190106 587  1.0+  0.7+    190107 J08  0.1+  0.4+
190105 C77  0.2-  0.5+    190106 587  1.3+  0.7+    190107 J08  0.1+  0.4+
190106 W34  0.0   0.1+    190106 587  1.5+  1.1+    190107 J08  0.3+  0.5+
190106 203  0.6+  0.4+    190106 K38  0.1-  0.0     190107 K51  0.4-  0.2-
190106 W34  0.3+  0.3-    190106 K38  0.9-  0.0     190107 K51  0.4-  0.0
190106 203  0.1-  0.3+    190106 K38  0.7-  0.2-    190107 K51  0.2-  0.0
190106 W34  0.5-  1.4-    190106 K38  0.6-  0.7-    190107 Z99  0.0   0.1+
190106 203  0.0   0.8+    190106 160  0.2-  0.1+    190107 Z99  0.5+  0.3-
190106 T08  0.1-  0.3+    190106 160  0.1-  0.2-    190107 Z99  0.1-  0.4+
190106 T08  1.1-  0.5-    190106 160  0.2-  0.1-
190106 T08  0.2-  0.2-    190106 160  0.2-  0.1-

Ephemeris:
2019 AD5                 a,e,i = 2.59, 0.66, 8                   q = 0.8843
Date    TT    R. A. (2000) Decl.     Delta      r     Elong.  Phase     V
2018 12 08    21 26 25.9 -38 01 53   0.2241  0.8899    58.8   108.8    23.5
...
2018 12 23    22 55 06.5 -35 39 55   0.1059  0.9405    63.2   111.1    22.1
...
2018 12 31    01 20 53.0 -21 19 00   0.05655 0.9857    90.7    86.0    19.6
...
2019 01 06    04 17 21.9 +10 56 38   0.05611 1.0259   138.3    39.7    18.3
2019 01 07    04 41 42.1 +15 14 31   0.06044 1.0330   144.3    33.8    18.3
2019 01 08    05 03 21.4 +18 47 11   0.06564 1.0403   149.2    28.9    18.3
...
2019 01 14    06 27 39.4 +29 31 12   0.1074  1.0861   161.7    16.5    19.1
...
2019 01 22    07 16 46.9 +33 13 56   0.1756  1.1519   161.4    15.8    20.3
...
2019 02 06    07 53 42.8 +33 59 26   0.3238  1.2849   154.0    19.6    22.0

A. U. Tomatic                (C) Copyright 2019 MPC           M.P.E.C. 2019-A116



More information about the Iaude mailing list